| Date | Temp | Humidity | Rainfall | Dew Point | Wind Direction | Wind Speed | Wind Pressure | Condition | Visibility |
|---|---|---|---|---|---|---|---|---|---|
| 2025-05-15 08:01:28 | 27 | 80 | 24 | 220 | 5.7 | 1010 | Partly Cloudy (Day) | 20 KM | |
| 2025-05-15 06:59:15 | 25 | 90 | 24 | 220 | 7.6 | 1009 | Partly Cloudy (Day) | 15 KM | |
| 2025-05-15 05:59:44 | 25 | 92 | 24 | 210 | 5.7 | 1009 | Partly Cloudy (Day) | 10 KM | |
| 2025-05-15 05:01:20 | 25 | 90 | 23 | 170 | 5.7 | 1009 | Lightning | 10 KM | |
| 2025-05-15 03:58:44 | 25 | 92 | 24 | 220 | 7.6 | 1009 | Partly Cloudy (Night) | 10 KM | |
| 2025-05-15 02:59:37 | 25 | 91 | 24 | 170 | 3.8 | 1008 | Partly Cloudy (Night) | 10 KM | |
| 2025-05-15 02:01:13 | 25 | 90 | 0.00 | 24 | 220 | 3.8 | 1009 | Cloudy | 10 KM |
| 2025-05-15 01:03:14 | 26 | 89 | 0.00 | 24 | 180 | 1.9 | 1009 | Lightning | 10 KM |
| 2025-05-15 00:00:29 | 26 | 84 | 0.00 | 23 | 190 | 5.7 | 1010 | Cloudy | 10 KM |
| 2025-05-14 23:00:41 | 26 | 86 | 0.00 | 24 | 170 | 7.6 | 1010 | Lightning | 10 KM |
| 2025-05-14 22:00:37 | 26 | 87 | 0.00 | 24 | 170 | 5.7 | 1010 | Night Thunderstorm | 10 KM |
| 2025-05-14 20:58:51 | 26 | 89 | 0 | 24 | 160 | 7.6 | 1010 | Night Thunderstorm | 10 KM |
| 2025-05-14 19:59:39 | 26 | 87 | 0 | 24 | 190 | 11.4 | 1010 | Night Thunderstorm | 10 KM |
| 2025-05-14 18:59:20 | 27 | 86 | 0 | 24 | 190 | 11.4 | 1009 | Night Thunderstorm | 10 KM |
| 2025-05-14 17:57:42 | 30 | 79 | 0 | 25 | 240 | 7.6 | 1009 | Cloudy | 15 KM |
| 2025-05-14 16:56:56 | 30 | 75 | 0 | 25 | 260 | 17.1 | 1008 | Partly Cloudy (Day) | 20 KM |
| 2025-05-14 15:58:30 | 31 | 71 | 0 | 25 | 280 | 15.2 | 1008 | Partly Cloudy (Day) | 20 km |
| 2025-05-14 14:58:37 | 32 | 65 | 0 | 24 | 300 | 15.2 | 1008 | Partly Cloudy (Day) | 20 km |
| 2025-05-14 13:57:05 | 31 | 60 | 0 | 23 | 290 | 19.0 | 1008 | Partly Cloudy (Day) | 20 km |
| 2025-05-14 13:00:02 | 32 | 57 | 23 | 280 | 15.2 | 1010 | Partly Cloudy (Day) | 20 km | |
| 2025-05-14 12:01:01 | 32 | 64 | 24 | 300 | 13.3 | 1010 | Partly Cloudy (Day) | 20 km | |
| 2025-05-14 11:00:26 | 31 | 65 | 24 | 240 | 5.7 | 1011 | Partly Cloudy (Day) | 20 km | |
| 2025-05-14 10:00:03 | 29 | 75 | 24 | 200 | 7.6 | 1011 | Partly Cloudy (Day) | 20 KM | |
| 2025-05-14 08:59:49 | 27 | 88 | 24 | 230 | 7.6 | 1011 | Partly Cloudy (Day) | 20 KM | |
| 2025-05-14 08:00:59 | 25 | 93 | 0.00 | 24 | 160 | 5.7 | 1010 | Partly Cloudy (Day) | 20 km |